ANA16 RJOO-RJTT

Flight info

Callsign ANA16
Flight time 0h 49m
Altitude 27000
Route ASUKA SHTLE Y71 XAC
Aircraft B77W/H-SDE1E2E3FGHIJ2J3J5M1P2RWY/LB1D1

Departure

Time 2026-05-06 01:56
Airport Osaka Itami International Airport (RJOO)

Arrival

Time 2026-05-06 02:45
Airport Tokyo Haneda International Airport (RJTT)
Time Latitude Longitude Altitude Speed Heading
2026-05-06 01:34 34.78813 135.44274 48 ft 0 kts 68°
2026-05-06 01:45 34.78807 135.44257 54 ft 4 kts 68°
2026-05-06 01:46 34.78797 135.44227 47 ft 4 kts 68°
2026-05-06 01:46 34.78786 135.44197 47 ft 4 kts 68°
2026-05-06 01:46 34.78777 135.44170 54 ft 2 kts 68°
2026-05-06 01:46 34.78765 135.44144 53 ft 4 kts 34°
2026-05-06 01:47 34.78742 135.44136 51 ft 4 kts 345°
2026-05-06 01:47 34.78721 135.44152 48 ft 4 kts 315°
2026-05-06 01:47 34.78702 135.44175 47 ft 4 kts 315°
2026-05-06 01:47 34.78683 135.44198 45 ft 3 kts 315°
2026-05-06 01:48 34.78681 135.44200 47 ft 1 kts 315°
2026-05-06 01:49 34.78698 135.44180 47 ft 7 kts 315°
2026-05-06 01:49 34.78731 135.44136 46 ft 7 kts 301°
2026-05-06 01:50 34.78729 135.44075 49 ft 7 kts 261°
2026-05-06 01:50 34.78734 135.44014 49 ft 7 kts 296°
2026-05-06 01:50 34.78767 135.43968 52 ft 7 kts 315°
2026-05-06 01:50 34.78804 135.43925 49 ft 7 kts 315°
2026-05-06 01:51 34.78840 135.43881 48 ft 7 kts 315°
2026-05-06 01:51 34.78877 135.43836 50 ft 7 kts 315°
2026-05-06 01:51 34.78912 135.43793 49 ft 7 kts 315°
2026-05-06 01:51 34.78951 135.43746 49 ft 9 kts 315°
2026-05-06 01:52 34.78999 135.43689 50 ft 11 kts 315°
2026-05-06 01:52 34.79062 135.43612 52 ft 15 kts 315°
2026-05-06 01:52 34.79140 135.43517 53 ft 17 kts 315°
2026-05-06 01:52 34.79229 135.43409 53 ft 19 kts 315°
2026-05-06 01:53 34.79325 135.43292 54 ft 19 kts 315°
2026-05-06 01:53 34.79388 135.43206 55 ft 13 kts 293°
2026-05-06 01:53 34.79351 135.43117 55 ft 13 kts 224°
2026-05-06 01:53 34.79295 135.43033 54 ft 13 kts 254°
2026-05-06 01:54 34.79281 135.42931 50 ft 13 kts 233°
2026-05-06 01:54 34.79198 135.42907 55 ft 13 kts 174°
2026-05-06 01:54 34.79114 135.42917 54 ft 11 kts 171°
2026-05-06 01:54 34.79064 135.42952 50 ft 0 kts 136°
2026-05-06 01:55 34.78968 135.43069 49 ft 44 kts 135°
2026-05-06 01:55 34.78570 135.43552 46 ft 117 kts 135°
2026-05-06 01:55 34.77845 135.44442 109 ft 170 kts 133°
2026-05-06 01:56 34.77002 135.45496 900 ft 174 kts 128°
2026-05-06 01:56 34.76584 135.46860 1602 ft 187 kts 85°
2026-05-06 01:56 34.77139 135.48290 2192 ft 198 kts 47°
2026-05-06 01:56 34.78234 135.49415 2352 ft 216 kts 46°
2026-05-06 01:57 34.79055 135.51033 2515 ft 233 kts 78°
2026-05-06 01:57 34.79118 135.53027 2797 ft 244 kts 100°
2026-05-06 01:57 34.78867 135.55139 3235 ft 257 kts 99°
2026-05-06 01:57 34.78678 135.57338 3855 ft 265 kts 97°
2026-05-06 01:58 34.78531 135.59602 4453 ft 273 kts 96°
2026-05-06 01:58 34.78401 135.61934 5059 ft 279 kts 96°
2026-05-06 01:58 34.78279 135.64309 5704 ft 284 kts 96°
2026-05-06 01:58 34.78171 135.66714 6442 ft 285 kts 95°
2026-05-06 01:59 34.78072 135.69142 7011 ft 291 kts 95°
2026-05-06 01:59 34.77966 135.71615 7713 ft 292 kts 95°
2026-05-06 01:59 34.77868 135.74076 8497 ft 290 kts 95°
2026-05-06 01:59 34.77772 135.76525 9241 ft 290 kts 95°
2026-05-06 02:00 34.77675 135.78979 9985 ft 292 kts 95°
2026-05-06 02:00 34.77577 135.81465 10530 ft 300 kts 95°
2026-05-06 02:00 34.77469 135.84102 10702 ft 324 kts 95°
2026-05-06 02:00 34.77357 135.86911 11145 ft 339 kts 95°
2026-05-06 02:01 34.77240 135.89807 11809 ft 347 kts 95°
2026-05-06 02:01 34.77122 135.92773 12622 ft 353 kts 94°
2026-05-06 02:01 34.77004 135.95781 13493 ft 359 kts 94°
2026-05-06 02:01 34.76880 135.98830 14283 ft 365 kts 94°
2026-05-06 02:02 34.76752 136.01938 15004 ft 371 kts 94°
2026-05-06 02:02 34.76710 136.05113 15646 ft 380 kts 89°
2026-05-06 02:02 34.76891 136.08360 16295 ft 389 kts 86°
2026-05-06 02:02 34.77166 136.11660 16966 ft 396 kts 85°
2026-05-06 02:03 34.77464 136.15025 17636 ft 404 kts 85°
2026-05-06 02:03 34.77757 136.18458 18311 ft 411 kts 85°
2026-05-06 02:03 34.78039 136.21948 18886 ft 419 kts 86°
2026-05-06 02:03 34.78313 136.25514 19412 ft 428 kts 86°
2026-05-06 02:04 34.78582 136.29151 19893 ft 437 kts 87°
2026-05-06 02:04 34.78848 136.32864 20419 ft 444 kts 87°
2026-05-06 02:04 34.79115 136.36638 20892 ft 452 kts 88°
2026-05-06 02:04 34.79385 136.40494 21277 ft 463 kts 88°
2026-05-06 02:05 34.79658 136.44377 21786 ft 470 kts 88°
2026-05-06 02:05 34.79942 136.48422 22336 ft 477 kts 88°
2026-05-06 02:05 34.80221 136.52412 22843 ft 484 kts 88°
2026-05-06 02:05 34.80507 136.56530 23349 ft 493 kts 88°
2026-05-06 02:06 34.80795 136.60716 23861 ft 500 kts 88°
2026-05-06 02:06 34.81087 136.64956 24384 ft 504 kts 88°
2026-05-06 02:06 34.81380 136.69210 25046 ft 504 kts 89°
2026-05-06 02:06 34.81671 136.73466 25712 ft 505 kts 89°
2026-05-06 02:07 34.81960 136.77740 26285 ft 508 kts 89°
2026-05-06 02:07 34.82249 136.82036 26788 ft 513 kts 89°
2026-05-06 02:07 34.82540 136.86371 27243 ft 514 kts 90°
2026-05-06 02:07 34.82827 136.90696 27200 ft 511 kts 91°
2026-05-06 02:08 34.82939 136.94978 27208 ft 503 kts 96°
2026-05-06 02:08 34.82721 136.99212 27222 ft 500 kts 104°
2026-05-06 02:08 34.82234 137.03412 27226 ft 502 kts 105°
2026-05-06 02:08 34.81728 137.07616 27220 ft 502 kts 105°
2026-05-06 02:09 34.81229 137.11820 27223 ft 502 kts 105°
2026-05-06 02:09 34.80741 137.16027 27224 ft 502 kts 104°
2026-05-06 02:09 34.80261 137.20234 27209 ft 502 kts 104°
2026-05-06 02:09 34.79788 137.24440 27204 ft 501 kts 104°
2026-05-06 02:10 34.79318 137.28630 27215 ft 500 kts 104°
2026-05-06 02:10 34.78847 137.32816 27216 ft 498 kts 104°
2026-05-06 02:10 34.78375 137.36990 27216 ft 497 kts 104°
2026-05-06 02:10 34.77903 137.41146 27225 ft 497 kts 104°
2026-05-06 02:11 34.77427 137.45309 27228 ft 497 kts 104°
2026-05-06 02:11 34.76950 137.49473 27229 ft 497 kts 104°
2026-05-06 02:11 34.76470 137.53639 27224 ft 498 kts 104°
2026-05-06 02:11 34.75990 137.57807 27223 ft 498 kts 104°
2026-05-06 02:12 34.75510 137.61976 27227 ft 498 kts 104°
2026-05-06 02:12 34.75027 137.66146 27231 ft 498 kts 104°
2026-05-06 02:12 34.74557 137.70295 27229 ft 499 kts 104°
2026-05-06 02:12 34.74135 137.74511 27236 ft 500 kts 103°
2026-05-06 02:13 34.73744 137.78714 27234 ft 500 kts 103°
2026-05-06 02:13 34.73356 137.82920 27240 ft 501 kts 103°
2026-05-06 02:13 34.72960 137.87128 27237 ft 501 kts 103°
2026-05-06 02:13 34.72600 137.90872 27235 ft 501 kts 103°
2026-05-06 02:14 34.72189 137.95078 27226 ft 501 kts 103°
2026-05-06 02:14 34.71776 137.99287 27233 ft 501 kts 103°
2026-05-06 02:14 34.71408 138.03508 27234 ft 503 kts 100°
2026-05-06 02:14 34.71322 138.07768 27241 ft 506 kts 95°
2026-05-06 02:15 34.71360 138.12049 27245 ft 507 kts 94°
2026-05-06 02:15 34.71413 138.16333 27238 ft 507 kts 94°
2026-05-06 02:15 34.71461 138.20614 27249 ft 507 kts 94°
2026-05-06 02:15 34.71498 138.24898 27234 ft 507 kts 94°
2026-05-06 02:16 34.71523 138.29180 27238 ft 507 kts 95°
2026-05-06 02:16 34.71540 138.33463 27239 ft 507 kts 95°
2026-05-06 02:16 34.71552 138.37744 27244 ft 507 kts 95°
2026-05-06 02:16 34.71563 138.42015 27225 ft 501 kts 95°
2026-05-06 02:17 34.71576 138.46186 27176 ft 488 kts 95°
2026-05-06 02:17 34.71586 138.50290 26801 ft 484 kts 94°
2026-05-06 02:17 34.71591 138.54369 26390 ft 481 kts 94°
2026-05-06 02:17 34.71595 138.58409 25980 ft 477 kts 94°
2026-05-06 02:18 34.71598 138.62427 25578 ft 474 kts 94°
2026-05-06 02:18 34.71600 138.66423 25164 ft 472 kts 94°
2026-05-06 02:18 34.71601 138.70401 24726 ft 470 kts 93°
2026-05-06 02:18 34.71602 138.74364 24321 ft 468 kts 93°
2026-05-06 02:19 34.71601 138.78308 23905 ft 467 kts 93°
2026-05-06 02:19 34.71597 138.82251 23408 ft 466 kts 93°
2026-05-06 02:19 34.71582 138.86180 22933 ft 463 kts 93°
2026-05-06 02:19 34.71559 138.90080 22505 ft 459 kts 94°
2026-05-06 02:20 34.71514 138.97766 21671 ft 450 kts 94°
2026-05-06 02:20 34.71496 139.01552 21255 ft 446 kts 94°
2026-05-06 02:20 34.71474 139.05302 20840 ft 443 kts 94°
2026-05-06 02:21 34.71449 139.09029 20439 ft 440 kts 94°
2026-05-06 02:21 34.71424 139.12734 20014 ft 437 kts 94°
2026-05-06 02:21 34.71398 139.16418 19582 ft 435 kts 94°
2026-05-06 02:21 34.71372 139.20086 19161 ft 433 kts 94°
2026-05-06 02:22 34.71346 139.23738 18722 ft 431 kts 94°
2026-05-06 02:22 34.71318 139.27377 18239 ft 430 kts 94°
2026-05-06 02:22 34.71289 139.30992 17764 ft 427 kts 94°
2026-05-06 02:22 34.71260 139.34593 17285 ft 425 kts 94°
2026-05-06 02:23 34.71283 139.38162 16825 ft 421 kts 88°
2026-05-06 02:23 34.71771 139.41622 16395 ft 422 kts 76°
2026-05-06 02:23 34.72764 139.44948 15934 ft 411 kts 65°
2026-05-06 02:23 34.74114 139.47919 15512 ft 383 kts 60°
2026-05-06 02:24 34.75418 139.50658 15121 ft 371 kts 60°
2026-05-06 02:24 34.76690 139.53383 14741 ft 371 kts 61°
2026-05-06 02:24 34.77954 139.56119 14345 ft 371 kts 61°
2026-05-06 02:24 34.79198 139.58829 13913 ft 372 kts 62°
2026-05-06 02:25 34.80451 139.61566 13680 ft 366 kts 62°
2026-05-06 02:25 34.81674 139.64239 13513 ft 357 kts 62°
2026-05-06 02:25 34.82883 139.66880 13362 ft 346 kts 61°
2026-05-06 02:25 34.84279 139.69099 13259 ft 329 kts 39°
2026-05-06 02:26 34.86172 139.70513 13239 ft 312 kts 19°
2026-05-06 02:26 34.88185 139.71360 13247 ft 306 kts 15°
2026-05-06 02:26 34.90221 139.72150 13250 ft 308 kts 15°
2026-05-06 02:26 34.92252 139.72948 13197 ft 306 kts 15°
2026-05-06 02:27 34.94267 139.73756 13093 ft 302 kts 15°
2026-05-06 02:27 34.96249 139.74560 13037 ft 299 kts 15°
2026-05-06 02:27 34.98210 139.75400 13014 ft 298 kts 23°
2026-05-06 02:27 34.99912 139.76882 12904 ft 306 kts 44°
2026-05-06 02:28 35.01410 139.78750 12684 ft 309 kts 45°
2026-05-06 02:28 35.02922 139.80609 12459 ft 306 kts 45°
2026-05-06 02:28 35.04418 139.82426 12251 ft 301 kts 44°
2026-05-06 02:28 35.05398 139.83607 12138 ft 297 kts 44°
2026-05-06 02:29 35.07343 139.85935 11870 ft 290 kts 44°
2026-05-06 02:29 35.08295 139.87072 11749 ft 288 kts 45°
2026-05-06 02:29 35.09721 139.88776 11561 ft 286 kts 45°
2026-05-06 02:29 35.11138 139.90468 11393 ft 284 kts 45°
2026-05-06 02:30 35.13021 139.92716 11145 ft 282 kts 45°
2026-05-06 02:30 35.14418 139.94387 10969 ft 281 kts 45°
2026-05-06 02:30 35.15339 139.95490 10856 ft 280 kts 45°
2026-05-06 02:30 35.16730 139.97154 10674 ft 279 kts 47°
2026-05-06 02:31 35.18115 139.98812 10496 ft 278 kts 46°
2026-05-06 02:31 35.19489 140.00459 10324 ft 276 kts 46°
2026-05-06 02:31 35.20859 140.02104 10146 ft 275 kts 46°
2026-05-06 02:31 35.22225 140.03741 9958 ft 275 kts 47°
2026-05-06 02:32 35.23589 140.05378 9765 ft 274 kts 46°
2026-05-06 02:32 35.24944 140.07005 9584 ft 273 kts 46°
2026-05-06 02:32 35.26299 140.08633 9421 ft 272 kts 46°
2026-05-06 02:32 35.27651 140.10258 9229 ft 273 kts 46°
2026-05-06 02:33 35.29001 140.11882 9070 ft 273 kts 46°
2026-05-06 02:33 35.29899 140.12963 8965 ft 273 kts 46°
2026-05-06 02:34 35.34460 140.18454 8377 ft 278 kts 46°
2026-05-06 02:34 35.35838 140.20117 8200 ft 279 kts 45°
2026-05-06 02:34 35.37358 140.21520 7995 ft 274 kts 20°
2026-05-06 02:34 35.39200 140.21890 7902 ft 266 kts 354°
2026-05-06 02:35 35.41047 140.21699 7799 ft 270 kts 352°
2026-05-06 02:35 35.42932 140.21495 7690 ft 274 kts 352°
2026-05-06 02:35 35.44838 140.21291 7556 ft 275 kts 352°
2026-05-06 02:35 35.46745 140.21088 7434 ft 276 kts 352°
2026-05-06 02:36 35.48662 140.20888 7314 ft 277 kts 352°
2026-05-06 02:36 35.50583 140.20690 7177 ft 278 kts 352°
2026-05-06 02:36 35.52508 140.20491 7057 ft 278 kts 352°
2026-05-06 02:36 35.54412 140.20145 6736 ft 276 kts 341°
2026-05-06 02:37 35.56258 140.19504 6469 ft 274 kts 339°
2026-05-06 02:37 35.58011 140.18692 6096 ft 263 kts 322°
2026-05-06 02:37 35.59231 140.17154 5923 ft 247 kts 298°
2026-05-06 02:37 35.60022 140.15326 5671 ft 236 kts 283°
2026-05-06 02:38 35.60281 140.13392 5501 ft 227 kts 271°
2026-05-06 02:38 35.60367 140.11468 5323 ft 224 kts 268°
2026-05-06 02:38 35.60385 140.09573 5156 ft 220 kts 267°
2026-05-06 02:38 35.60386 140.07712 4970 ft 215 kts 267°
2026-05-06 02:39 35.60384 140.05885 4667 ft 213 kts 266°
2026-05-06 02:39 35.60383 140.04072 4391 ft 211 kts 266°
2026-05-06 02:39 35.60383 140.02274 4124 ft 209 kts 266°
2026-05-06 02:39 35.60383 140.00495 3860 ft 207 kts 266°
2026-05-06 02:40 35.60383 139.98744 3635 ft 204 kts 266°
2026-05-06 02:40 35.60383 139.97008 3330 ft 201 kts 266°
2026-05-06 02:40 35.60385 139.95364 3081 ft 183 kts 265°
2026-05-06 02:40 35.60384 139.93895 2828 ft 167 kts 265°
2026-05-06 02:41 35.60385 139.92525 2608 ft 149 kts 264°
2026-05-06 02:41 35.60383 139.91303 2440 ft 140 kts 264°
2026-05-06 02:41 35.60384 139.90130 2264 ft 137 kts 263°
2026-05-06 02:41 35.60383 139.88949 2078 ft 136 kts 263°
2026-05-06 02:42 35.60382 139.87789 1892 ft 139 kts 263°
2026-05-06 02:42 35.60383 139.86598 1719 ft 140 kts 264°
2026-05-06 02:42 35.60383 139.85399 1519 ft 140 kts 264°
2026-05-06 02:42 35.60379 139.84212 1362 ft 139 kts 262°
2026-05-06 02:43 35.60359 139.83028 1192 ft 139 kts 262°
2026-05-06 02:43 35.60313 139.81844 1038 ft 136 kts 259°
2026-05-06 02:43 35.60045 139.80789 960 ft 128 kts 232°
2026-05-06 02:43 35.59406 139.79989 748 ft 137 kts 214°
2026-05-06 02:44 35.58616 139.79336 542 ft 137 kts 213°
2026-05-06 02:44 35.57869 139.78679 367 ft 129 kts 214°
2026-05-06 02:44 35.57149 139.78061 211 ft 123 kts 213°
2026-05-06 02:44 35.56445 139.77455 48 ft 122 kts 213°
2026-05-06 02:45 35.55836 139.76930 32 ft 84 kts 214°
2026-05-06 02:45 35.55500 139.76661 30 ft 38 kts 199°
2026-05-06 02:45 35.55323 139.76625 26 ft 12 kts 172°
2026-05-06 02:45 35.55277 139.76696 27 ft 12 kts 88°
2026-05-06 02:46 35.55331 139.76766 28 ft 12 kts 35°
2026-05-06 02:46 35.55398 139.76824 28 ft 12 kts 34°
2026-05-06 02:46 35.55465 139.76880 28 ft 12 kts 35°
2026-05-06 02:46 35.55543 139.76948 28 ft 17 kts 35°
2026-05-06 02:47 35.55644 139.77035 27 ft 18 kts 35°
2026-05-06 02:47 35.55745 139.77122 28 ft 18 kts 35°
2026-05-06 02:47 35.55845 139.77209 27 ft 18 kts 35°
2026-05-06 02:47 35.55935 139.77310 29 ft 18 kts 57°
2026-05-06 02:48 35.55999 139.77442 25 ft 18 kts 60°
2026-05-06 02:48 35.56062 139.77576 28 ft 18 kts 60°
2026-05-06 02:48 35.56126 139.77711 29 ft 18 kts 60°
2026-05-06 02:48 35.56190 139.77845 28 ft 18 kts 59°
2026-05-06 02:49 35.56253 139.77979 30 ft 18 kts 60°
2026-05-06 02:49 35.56317 139.78113 29 ft 18 kts 60°
2026-05-06 02:49 35.56380 139.78247 29 ft 18 kts 60°
2026-05-06 02:49 35.56427 139.78357 29 ft 10 kts 80°
2026-05-06 02:50 35.56384 139.78418 29 ft 10 kts 150°
2026-05-06 02:50 35.56320 139.78463 28 ft 12 kts 150°
2026-05-06 02:50 35.56240 139.78520 29 ft 14 kts 150°
2026-05-06 02:50 35.56158 139.78578 28 ft 14 kts 149°
2026-05-06 02:51 35.56077 139.78636 27 ft 14 kts 150°
2026-05-06 02:51 35.55995 139.78694 27 ft 14 kts 149°
2026-05-06 02:51 35.55914 139.78752 27 ft 14 kts 150°
2026-05-06 02:51 35.55832 139.78810 27 ft 14 kts 150°
2026-05-06 02:52 35.55751 139.78867 28 ft 14 kts 149°
2026-05-06 02:52 35.55669 139.78925 29 ft 14 kts 150°
2026-05-06 02:52 35.55588 139.78983 30 ft 14 kts 150°
2026-05-06 02:52 35.55515 139.79034 30 ft 10 kts 150°
2026-05-06 02:53 35.55452 139.79041 31 ft 10 kts 213°
2026-05-06 02:53 35.55415 139.78970 31 ft 10 kts 241°
2026-05-06 02:53 35.55363 139.78924 32 ft 10 kts 176°
2026-05-06 02:53 35.55325 139.78946 32 ft 3 kts 149°
2026-05-06 02:54 35.55302 139.78951 32 ft 4 kts 196°
2026-05-06 02:54 35.55291 139.78922 31 ft 4 kts 247°
2026-05-06 02:54 35.55276 139.78892 30 ft 3 kts 239°
2026-05-06 02:54 35.55271 139.78882 30 ft 1 kts 239°
2026-05-06 02:55 35.55269 139.78879 31 ft 0 kts 239°